ARIANE 5 DEB, 43382

Orbit data source: Space-Track

ARIANE 5 DEB, 43382 is space debris in HEO originally from a launch on Thu, 12 Jun 2008 UTC launched from the French Guiana (FRGUI). Debris objects in space refer to the collection of defunct objects orbiting the Earth. Examples of debris include non-operational satellites, rocket bodies, and fragments generated from explosions, collisions, or faulty payload assembly.

Loading next visibility...
Identifier
43382, 2008-030E
Orbit
HEO
Country
Flag of FRFR
Related business
Manufacturer
Thales Alenia
Mission
Spacecraft
Bus & Motor
Unknown
Mass
Unknown
Launch date (UTC)
2008-06-12 (17 years ago)
Launch vehicle
Unknown
Launch site
French Guiana (FRGUI)
Object type
Payload
Rocket body
Debris
Shape & HBR
Unknown
Radar Cross Section
Large (>1 m²)

Expand to show TLE details & history
Last TLE update: 17 hours ago

TLE from 17 hours ago
0 ARIANE 5 DEB
1 43382U 08030E   25243.17366413  .00004911  00000-0  24279-2 0  9999
2 43382   1.7072 129.6122 7056180   5.8876 359.3805  2.54849825105975
Epoch: 2025-08-31T04:10Z
TLE epoch observation values (Epoch: 2025-08-31T04:10:04.58Z)
Latitude
0.00001°
Longitude
87.6045°
Altitude
286.753 km
Speed
10.099 km/s
True Right ascension
08h 38m 53s
True Declination
0° 00' 00"
Sunlit
Object was in daylight at epoch
Visualization orbit readout
Latitude
Unknown
Longitude
Unknown
Altitude
Unknown
Speed
Unknown
Apparent Right ascension
Unknown
Apparent Declination
Unknown
Sunlit
N/A
Visualization observer readout
Local Sidereal Time
13:00:42
Azimuth
Unknown
Elevation
Unknown
Doppler factor
Unknown
Orbital elements
Apogee altitude
32,246.618 km
Perigee altitude
288.322 km
Semi-major axis
22,645.607 km
Eccentricity
0.70562
Inclination
1.7072°
RAAN
129.6122°
Arg. of periapsis
5.8876°
True anomaly
354.94003°
Mean anomaly
359.3805°
Eccentric anomaly
357.89672°
Mean motion
0.63689 °/min
Orbital period
565.24 mins
BSTAR
0.0024279
Loading maneuver chart data...
Computing Atmospheric mass density...
Loading historical data...
Loading historical data...
Loading historical data...
Loading historical data...
Loading historical data...
Loading historical data...
Loading historical data...

Documentation

Showing up to 5 results
|